Regional Weather Roundup
Issued by NWS

Home | Current Version | Previous Version | Text Only | Print | Product List | Glossary Off
Versions: 1 2 3 4 5 6 7 8 9 10 11 12 13 14 15 16 17 18 19 20 21 22 23 24 25 26 27 28 29 30 31 32 33 34 35 36 37 38 39 40 41 42 43 44 45 46 47 48 49 50

634
ASUS45 KSLC 301310
RWRUT

UTAH REGIONAL WEATHER ROUNDUP
NATIONAL WEATHER SERVICE SALT LAKE CITY UT
700 AM MDT SAT JUL 30 2016

UTZ001>011-023>025-301400-

NORTHERN UTAH

CITY           SKY/WX    TMP DP  RH WIND       PRES   REMARKS
BRIGHAM CITY     N/A     64  48  56 N8        29.96R
HILL AFB       CLEAR     70  39  32 E16       29.99R
LOGAN          CLEAR     58  49  72 CALM      29.98R
OGDEN          CLEAR     70  40  33 S9        29.96R
PROVO AIRPORT  MOCLDY    66  45  45 CALM      30.00R
SALT LAKE CITY PTCLDY    78  42  27 SE5       29.94R
VERNAL         CLEAR     60  39  45 W5        30.06R
WENDOVER       PTCLDY    72  45  37 CALM      29.95R
HEBER CITY     MOCLDY    54  45  71 CALM      30.09R
WEST JORDAN    CLEAR     73  39  29 S3        29.99

$$

UTZ012>022-026-027-301400-

SOUTHERN/CENTRAL UTAH

CITY           SKY/WX    TMP DP  RH WIND       PRES   REMARKS
BLANDING       MOCLDY    71  43  36 CALM      30.22R
BRYCE CANYON   MOCLDY    57  42  57 W9        30.27S
CEDAR CITY     PTCLDY    67  42  40 S6        30.11R
DELTA          PTCLDY    73  41  31 S7        30.01R
MILFORD        PTCLDY    68  45  43 S9        30.04R
MOAB/CYNLANDS  MOCLDY    85  40  20 E9        29.97R
PRICE          CLOUDY    82  34  17 N13G38    30.10R
ST GEORGE      PTSUNNY   81  48  32 CALM      29.96R

$$

REGIONAL REPORTS     COLORADO/ARIZONA

CITY           SKY/WX    TMP DP  RH WIND       PRES   REMARKS
CRAIG, CO      CLOUDY    45  39  79 CALM      30.17R
GRAND JUNCTION CLOUDY    68  39  34 CALM      30.03R
RIFLE          CLEAR     58  37  45 CALM      30.12R
MONTROSE       CLOUDY    70  38  31 E12       30.12R
CORTEZ         CLEAR     63  45  51 CALM      30.15R
PAGE, AZ       MOCLDY    84  44  24 NW6       29.98R
GRAND CANYON   CLOUDY    60  51  72 CALM      30.23R
KINGMAN        CLOUDY    73  64  73 SW15      29.99F
FLAGSTAFF      CLOUDY    58  51  78 SW5       30.28R

$$

REGIONAL REPORTS    NEVADA/IDAHO/WYOMING

CITY           SKY/WX    TMP DP  RH WIND       PRES   REMARKS
LAS VEGAS, NV  MOCLDY    86  58  38 S12G20    29.85R
ELY            PTCLDY    50  42  74 S12       30.14R
ELKO           CLOUDY    73  43  33 E3        30.01R
POCATELLO, ID  PTCLDY    65  41  41 CALM      29.97R
BURLEY         PTCLDY    65  46  50 S3        29.91R
EVANSTON, WY   CLOUDY    61  32  33 SE7       30.19R
ROCK SPRINGS   CLOUDY    58  42  55 SE8       30.17R
KEMMERER         N/A     52  32  46 N10       30.20S

$$




USA.gov is the U.S. government's official web portal to all federal, state and local government web resources and services.